Location: Friens
(53.0987°N, 5.8018°E)
Time: 13:03:23
(UTC+00:00)

Daily predictions for brighter satellites

Satellite Brightness Start Highest point End
(mag) Time Altitude Azimuth Time Altitude Azimuth Time Altitude Azimuth
Meteor 2-3 Rocket 4.3 20:07:35 10° SSE 20:12:50 40° E 20:18:09 10° NNE
Cosmos 2219 Rocket 3.9 20:09:56 10° NNW 20:14:23 23° NNE 20:18:48 10° E
CARTOSAT-1 4.1 20:10:29 10° SE 20:14:37 46° ENE 20:18:45 10° N
GEOS 3 Rocket 4.1 20:14:20 10° NE 20:19:33 68° NW 20:24:39 10° WSW
Ariane Rocket 4.0 20:15:13 10° S 20:20:07 48° W 20:25:02 10° NNW
SL-16 R/B 2.3 20:16:16 10° NNW 20:21:58 72° NE 20:27:38 10° SE
Cosmos 1782 3.3 20:21:56 10° N 20:25:51 46° ENE 20:29:43 10° SSE
CZ-4C R/B 4.1 20:21:09 10° WNW 20:26:23 36° N 20:32:43 10° NE
Cosmos 371 Rocket 4.0 20:21:53 10° NNW 20:26:34 52° WSW 20:31:14 10° S
COSMOS 2428 4.4 20:24:12 10° NNW 20:28:50 24° NE 20:33:27 10° E
ARIANE 5 R/B 2.9 20:27:20 10° SSE 20:31:43 57° ENE 20:36:05 10° N
Cosmos 1271 Rocket 2.8 20:28:28 10° N 20:32:28 74° ENE 20:36:28 10° SSE
USA 276 3.3 20:33:12 10° W 20:35:59 29° SSW 20:38:32 11° SE
BREEZE-M DEB (TANK) 3.5 20:34:37 10° WSW 20:37:22 30° SSW 20:43:13 10° SE
NOSS 3-4 (A) 4.3 20:31:36 10° WSW 20:37:28 55° NNW 20:43:57 10° NE
NOSS 3-4 (C) 4.3 20:31:43 10° WSW 20:37:34 55° NNW 20:44:03 10° NE
SPOT 1/Viking Rocket 3.8 20:32:45 10° S 20:37:58 76° WSW 20:43:13 10° NNW
Cosmos 1151 Rocket 3.4 20:35:10 10° N 20:39:27 53° ENE 20:43:40 10° SSE
Cosmos 1076 Rocket 4.0 20:35:42 10° SSW 20:40:01 66° WNW 20:44:24 10° N
ATLAS 5 CENTAUR R/B 3.4 20:36:32 10° NW 20:41:02 34° NNE 20:46:19 10° E
Cosmos 1766 Rocket 4.4 20:38:02 10° SSE 20:42:00 34° E 20:45:58 10° NNE
Cosmos 1328 Rocket 4.1 20:39:21 10° N 20:43:40 46° ENE 20:47:39 12° SE
ATLAS 2AS CENTAUR R/B 3.3 20:38:25 10° SW 20:46:21 76° NW 20:54:00 10° NE
ATLAS 3B R/B 3.8 20:42:27 10° NW 20:48:58 41° WSW 20:55:43 10° S
Cosmos 923 Rocket 4.3 20:44:16 10° S 20:49:22 48° ESE 20:54:31 10° NE
Cosmos 1833 Rocket 4.3 20:45:58 10° WSW 20:51:16 40° NW 20:56:36 10° NNE
Terra 2.1 20:47:56 11° SE 20:52:19 54° ENE 20:56:59 10° N
USA 267 4.5 20:48:46 10° E 20:53:05 18° SE 20:57:24 10° SSE
SPOT 5 2.6 20:50:48 11° SSE 20:54:56 75° ENE 20:59:23 10° NNW
Cosmos 2056 Rocket 3.7 20:52:08 10° NNW 20:57:32 67° ENE 21:02:09 14° SE
Cosmos 2082 Rocket 2.9 20:52:11 10° SW 20:57:45 60° NW 21:03:24 10° NNE
Cosmos 1092 Rocket 4.0 20:51:46 10° S 20:58:03 87° E 21:04:26 10° N
Cosmos 1633 4.4 20:56:08 10° SW 20:59:26 33° WNW 21:02:46 10° N
NOSS 2-1 (C) 4.5 21:00:51 16° SE 21:01:26 16° ESE 21:03:37 10° ENE
BREEZE-M DEB (TANK) 2.5 21:00:29 10° WSW 21:02:30 28° S 21:03:12 21° SE
Cosmos 2360 Rocket 2.3 20:59:42 10° NNW 21:05:21 72° NE 21:10:08 15° SE
ERS-1 Rocket 3.0 21:00:35 11° SSE 21:05:25 89° WSW 21:10:29 10° NNW
SL-27 R/B 3.9 21:06:23 16° SE 21:07:55 21° E 21:10:42 10° NE
NOSS 2-1 (D) 4.3 21:08:17 18° SE 21:09:04 19° ESE 21:11:32 10° ENE
Cosmos 158 Rocket 4.1 21:04:04 10° SSW 21:09:15 83° WNW 21:14:37 10° NNE
ATLAS CENTAUR R/B 4.4 21:03:52 10° WNW 21:10:53 82° NNE 21:30:24 10° ESE
Cosmos 2026 Rocket 4.0 21:04:41 10° S 21:11:02 87° E 21:17:20 10° N
GP-B 3.3 21:06:49 10° N 21:11:16 75° W 21:15:41 10° S
ISS -1.3 21:12:50 10° WSW 21:14:21 13° SW 21:15:53 10° SSW
Cosmos 2333 Rocket 2.8 21:10:22 10° NNW 21:15:53 50° NE 21:20:38 14° ESE
Meteor 1-10 Rocket 4.3 21:12:57 10° N 21:18:31 64° ENE 21:22:51 17° SSE
Cosmos 1371 Rocket 4.1 21:13:39 10° NNW 21:19:02 82° WSW 21:23:22 16° SSE
Spot 2 Rocket 4.2 21:15:10 10° S 21:20:08 51° W 21:25:09 10° NNW
Cosmos 1812 2.7 21:16:17 10° N 21:20:10 88° ENE 21:23:04 17° S
Cosmos 220 Rocket 4.2 21:18:13 10° NNW 21:22:31 65° WSW 21:25:50 17° S
CZ-2C R/B 4.3 21:18:35 10° N 21:23:05 58° WNW 21:27:28 10° SSW
Cosmos 2112 Rocket 4.1 21:18:46 10° S 21:23:58 59° ESE 21:29:09 10° NNE
Cosmos 1680 Rocket 3.5 21:19:13 10° SSW 21:24:27 68° ESE 21:29:41 10° NNE
Cosmos 2322 4.2 21:20:36 10° NNW 21:26:14 55° NE 21:30:49 16° SE
Okean 3 Rocket 3.6 21:24:58 10° S 21:29:27 88° ESE 21:34:01 10° NNE
USA 234 3.4 21:23:45 10° ESE 21:30:18 80° NNE 21:36:54 10° WNW
Cosmos 292 Rocket 3.8 21:25:33 10° NNW 21:30:20 74° ENE 21:33:40 20° SE
Cosmos 2237 Rocket 3.9 21:31:25 10° NNW 21:36:14 27° NE 21:41:02 10° E
Cosmos 2322 Rocket 2.8 21:32:01 10° NW 21:37:26 48° WSW 21:41:46 15° S
Resurs 01 Rocket 4.3 21:40:45 10° WSW 21:42:46 13° W 21:44:48 10° WNW
Cosmos 2285 Rocket 4.3 21:36:46 10° NNW 21:43:01 58° ENE 21:47:42 18° SE
Cosmos 1408 Rocket 3.5 21:40:12 19° S 21:43:18 68° E 21:47:38 10° NNE
Cosmos 1743 Rocket 4.2 21:42:22 22° SSE 21:44:45 41° E 21:48:55 10° NNE
Cosmos 2315 Rocket 4.3 21:41:39 10° N 21:47:54 59° ENE 21:52:17 20° SSE
Gblst 52 Del rocket 4.5 21:43:04 10° W 21:49:06 73° SSW 21:56:01 10° ESE
Meteor 2-14 Rocket 4.5 21:43:59 10° S 21:50:06 87° WNW 21:56:18 10° N
Cosmos 1553 Rocket 4.3 21:44:23 10° NNW 21:50:22 60° W 21:55:36 14° S
Cosmos 2084 3.5 21:48:58 10° SSW 21:52:56 51° SE 21:57:01 10° NE
Sich 1 4.4 21:51:50 20° ESE 21:53:30 25° E 21:57:01 10° NNE
Cosmos 2266 Rocket 4.0 21:53:29 19° S 21:58:01 67° E 22:04:14 10° NNE
Cosmos 2219 Rocket 2.2 21:53:39 10° NNW 21:59:17 76° ENE 22:02:58 22° SE
Cosmos 1862 3.5 21:57:03 16° SSW 22:00:07 70° WNW 22:04:06 10° N
SL-16 R/B 4.4 21:58:51 10° NNW 22:03:06 21° NNE 22:07:20 10° ENE
Cosmos 2228 Rocket 3.1 21:59:21 10° N 22:03:46 67° ENE 22:06:05 27° SSE
Cosmos 1515 Rocket 4.0 21:59:30 10° NNW 22:03:53 56° W 22:06:43 20° SSW
H-2A R/B 3.4 22:00:14 10° NNE 22:04:28 86° ESE 22:07:15 21° SSW
SL-16 R/B 3.8 22:01:03 10° NW 22:05:36 25° WSW 22:09:55 11° SSW
USA 40 PKM 4.2 22:02:25 10° WNW 22:06:22 89° N 22:08:39 22° ESE
NOSS 2-1 (E) 2.9 22:05:22 26° SSW 22:06:59 55° SE 22:10:28 10° NE
NOSS 3-1 (C) 4.1 22:01:14 10° NW 22:08:27 72° SW 22:14:30 21° SSE
Cosmos 2333 4.2 22:03:15 10° NW 22:08:51 72° WSW 22:12:13 25° SSE
Cosmos 1420 Rocket 4.5 22:05:17 10° NNW 22:10:29 54° WSW 22:13:43 22° S
COSMOS 2455 3.3 22:09:10 23° S 22:12:21 40° ESE 22:17:55 10° NE
Cosmos 883 Rocket 4.5 22:06:32 10° N 22:12:47 86° W 22:16:57 23° S
COSMOS 2428 2.7 22:08:17 10° NNW 22:14:01 80° ENE 22:17:35 24° SE
CZ-4C R/B 4.1 22:10:41 10° NW 22:16:31 38° NNE 22:23:29 10° E
Cosmos 1655 Rocket 4.1 22:12:45 16° SSW 22:17:55 84° W 22:24:23 10° N
Cosmos 1515 4.2 22:15:42 10° N 22:19:23 48° ENE 22:20:48 31° SE
USA 229 DEB 3.9 22:15:30 10° NW 22:22:45 84° SW 22:28:16 21° SE
USA 229 3.9 22:15:36 10° NW 22:22:51 84° SW 22:28:23 21° SE
Spot 4 3.8 22:21:45 28° SSE 22:24:18 82° ENE 22:29:10 10° NNW
Cosmos 1174 4.4 22:23:33 10° WNW 22:26:09 26° WSW 22:26:29 25° SW
ATLAS 5 CENTAUR R/B 2.2 22:20:59 10° NW 22:26:17 84° NE 22:30:39 21° SE
Cosmos 1452 Rocket 3.6 22:24:50 10° NNW 22:30:04 68° WSW 22:32:49 28° S
Terra 3.5 22:26:49 12° SW 22:30:23 25° W 22:34:18 10° NW
Cosmos 1707 Rocket 3.8 22:26:04 10° N 22:30:24 58° ENE 22:32:18 31° SE
COSMOS 2487 2.6 22:31:49 44° SSE 22:32:24 51° ESE 22:35:43 10° NNE
ALOS 2 2.8 22:33:57 30° SE 22:35:58 63° ENE 22:40:19 10° N
USA 267 3.3 22:30:46 10° ENE 22:37:11 54° SE 22:43:34 10° SW
ATLAS 2AS CENTAUR R/B 4.3 22:31:06 10° W 22:38:25 41° NNW 22:45:24 10° NE
Meteor 1-27 Rocket 4.2 22:35:21 10° NNW 22:40:47 52° W 22:44:15 22° SSW
SL-27 R/B 3.7 22:39:50 13° SW 22:42:44 40° WNW 22:46:11 10° NNE
NOSS 3-1 (A) 4.1 22:35:54 10° NW 22:43:09 72° SW 22:48:48 23° SSE
Cosmos 2360 Rocket 3.7 22:44:23 10° NW 22:48:52 25° WSW 22:51:53 16° SW
Cosmos 1805 Rocket 3.6 22:49:12 31° SSW 22:51:21 81° WNW 22:55:48 10° N
NOSS 2-1 (C) 3.5 22:48:11 10° WSW 22:51:24 56° NW 22:54:58 10° NE
NOSS 2-2 (D) 4.4 22:50:02 10° NW 22:54:48 68° NE 23:00:43 13° ESE
Cosmos 1110 Rocket 4.0 22:50:48 10° NNW 22:56:09 76° WSW 22:58:40 32° SSE
Cosmos 1980 3.8 22:52:12 10° NNW 22:57:54 73° NE 23:01:19 25° SE
Meteor 1-20 Rocket 4.2 22:54:52 28° S 22:57:55 84° E 23:03:40 10° NNE
NOSS 2-1 (D) 3.8 22:55:56 10° WSW 22:59:07 49° NW 23:02:42 10° NE
Cosmos 2333 Rocket 3.0 22:54:53 10° NW 23:00:04 38° WSW 23:02:38 25° SSW
Cosmos 1331 Rocket 4.0 22:56:19 10° NNW 23:01:36 75° WSW 23:03:58 33° S
Cosmos 1244 Rocket 4.4 23:03:48 28° S 23:07:13 82° E 23:13:27 10° NNE
Cosmos 972 Rocket 4.2 23:07:27 21° SW 23:11:02 67° WNW 23:16:01 10° NNE
NOSS 0 Rocket 4.0 23:06:34 10° NW 23:12:47 71° WSW 23:16:01 30° SSE
USA 234 3.4 23:10:02 26° SSE 23:13:37 52° SW 23:20:01 10° WNW
Cosmos 1340 Rocket 4.2 23:13:35 22° ESE 23:14:27 24° E 23:17:39 10° NE
Okean 1-7 4.0 23:13:02 10° N 23:17:00 37° ENE 23:18:54 24° ESE
Cosmos 2297 Rocket 3.1 23:17:11 26° SE 23:19:04 33° ESE 23:24:04 10° NE
Cosmos 468 4.5 23:16:08 26° SSW 23:19:07 83° WNW 23:24:24 10° NNE
Cosmos 2237 Rocket 2.2 23:15:18 10° NNW 23:21:01 87° WSW 23:24:02 29° SSE
Lacrosse 5 3.1 23:21:58 24° SE 23:21:58 24° SE 23:25:57 10° ENE
Cosmos 2084 Rocket 3.3 23:18:36 10° NW 23:22:45 69° SW 23:24:07 41° SSE
Cosmos 2242 Rocket 4.4 23:18:55 10° N 23:23:09 43° ENE 23:25:08 26° SE
NOSS 2-2 (E) 4.2 23:18:52 10° NW 23:23:56 79° SW 23:28:32 22° SE
Meteor 1-18 Rocket 4.4 23:18:15 10° NNW 23:24:07 69° W 23:26:56 31° S
Cosmos 1500 3.1 23:26:57 47° SSW 23:27:59 88° W 23:31:52 10° N
Cosmos 1470 Rocket 3.7 23:29:03 39° SSE 23:30:24 60° E 23:34:41 10° NNE
Okean 1 4.1 23:26:48 10° NNW 23:30:37 42° W 23:31:46 33° SW
Cosmos 2227 Rocket 3.2 23:28:53 25° SE 23:30:48 31° ESE 23:35:42 10° NE
Sich 1 3.9 23:28:46 24° SW 23:30:57 44° WNW 23:35:08 10° N
Cosmos 1633 Rocket 3.0 23:33:06 38° SSW 23:34:44 77° W 23:39:07 10° N
Cosmos 494 Rocket 4.0 23:33:16 27° SW 23:36:05 76° WNW 23:41:15 10° NNE
Cosmos 1933 Rocket 4.1 23:35:34 34° SE 23:37:04 48° E 23:41:22 10° NNE
Cosmos 1666 Rocket 3.9 23:37:06 32° SW 23:38:58 60° WNW 23:43:24 10° N
Cosmos 2219 Rocket 3.6 23:38:22 10° NW 23:42:41 23° WSW 23:44:40 19° SW
Cosmos 1048 Rocket 4.5 23:39:38 20° SW 23:43:03 55° WNW 23:48:07 10° NNE
NOSS 2-2 (C) 4.3 23:43:09 10° NW 23:48:09 68° SW 23:52:23 23° SSE
SL-16 R/B 2.5 23:42:42 10° NNW 23:48:22 64° NE 23:52:42 17° SE
Cosmos 1992 Rocket 4.2 23:43:45 10° NNW 23:49:00 70° ENE 23:52:06 25° SE
PSLV R/B 4.0 23:45:38 10° NNE 23:50:23 61° E 23:52:12 36° SSE
Resurs 1-4 Rocket 4.2 23:48:47 10° NE 23:51:59 16° E 23:55:08 10° ESE
Cosmos 1269 Rocket 4.1 23:50:05 34° S 23:52:16 63° ESE 23:57:30 10° NNE
Cosmos 1302 Rocket 4.2 23:49:45 10° NNW 23:54:50 54° WSW 23:56:50 34° SSW
